Date String (YYYY-MM-DD hh:mm:ss) UTC,Instrument flags,absolute air pressure of the measurement (hPa),sample flow rate (lpm),inlet stack bypass flow (lpm),air temperature of the measurement (°C),ambient temperature measured by the external sensor (°C),aerosol sample conditioner tube jacket temperature (°C),OPC LED temperature (°C),internal box temperature (°C),relative humidity of the measurement (%),span deviation,mass concentration of particles derived from Lorenz-Mie calculation of OPC scattering (μg/m³),mass concentration of particles derived from Lorenz-Mie calculation of OPC scattering (μg/m³),mass concentration of particles derived from Lorenz-Mie calculation of OPC scattering (μg/m³)
DateTimeUTC,F1_M11,P_M11,Q1_M11,Q2_M11,T1_M11,T2_M11,T3_M11,T4_M11,T5_M11,U1_M11,ZSPAN_M11,X0_M11,X2_M11,X1_M11
2024-01-31 21:00:00,SystemResetWarning,0827.9,5.00,000.00,025.4,022.3,000.0,034.1,026.1,09.1,0000.0,0008.12,0003.15,0002.53
2024-01-31 21:01:00,SystemResetWarning,0827.8,5.01,000.00,025.0,021.7,000.0,034.0,025.6,09.4,0000.0,0008.47,0003.18,0002.56
2024-01-31 21:02:00,SystemResetWarning,0827.8,5.00,000.00,024.9,022.1,000.0,033.9,025.7,09.4,0000.0,0009.38,0003.23,0002.59
2024-01-31 21:03:00,SystemResetWarning,0827.8,4.99,000.00,024.9,022.5,000.0,033.7,026.0,09.3,0000.0,0009.49,0003.29,0002.66
2024-01-31 21:04:00,SystemResetWarning,0827.8,5.00,000.00,024.9,022.9,000.0,033.6,026.3,09.3,0000.0,0010.60,0003.33,0002.73
2024-01-31 21:05:00,SystemResetWarning,0827.9,5.00,000.00,024.9,023.3,000.0,033.5,026.5,09.3,0000.0,0010.91,0003.35,0002.80
2024-01-31 21:06:00,SystemResetWarning,0827.9,5.00,000.00,025.0,023.6,000.0,033.5,026.6,09.3,0000.0,0011.14,0003.38,0002.85
2024-01-31 21:07:00,SystemResetWarning,0827.9,4.99,000.00,025.0,023.9,000.0,033.5,026.8,09.2,0000.0,0010.94,0003.39,0002.89
2024-01-31 21:08:00,SystemResetWarning,0827.9,5.00,000.00,025.1,024.2,000.0,033.4,026.9,09.0,0000.0,0010.63,0003.42,0002.91
2024-01-31 21:09:00,SystemResetWarning,0827.9,5.00,000.00,025.2,024.4,000.0,033.4,027.0,09.2,0000.0,0011.26,0003.44,0002.92
2024-01-31 21:10:00,SystemResetWarning,0827.9,5.00,000.00,025.2,024.6,000.0,033.4,027.1,09.1,0000.0,0011.43,0003.47,0002.95
2024-01-31 21:11:00,SystemResetWarning,0827.9,5.00,000.00,025.3,024.7,000.0,033.5,027.1,09.1,0000.0,0011.63,0003.48,0002.94
2024-01-31 21:12:00,SystemResetWarning,0827.9,5.00,000.00,025.4,024.9,000.0,033.5,027.2,09.0,0000.0,0011.92,0003.51,0002.96
2024-01-31 21:13:00,SystemResetWarning,0827.9,4.99,000.00,025.4,025.0,000.0,033.5,027.3,09.0,0000.0,0011.12,0003.50,0002.98
2024-01-31 21:14:00,SystemResetWarning,0827.9,4.99,000.00,025.5,025.1,000.0,033.5,027.4,09.0,0000.0,0011.02,0003.47,0002.97
2024-01-31 21:15:00,SystemResetWarning,0827.9,5.00,000.00,025.5,025.2,000.0,033.6,027.4,09.0,0000.0,0010.00,0003.46,0002.95
2024-01-31 21:16:00,SystemResetWarning,0827.9,5.01,000.00,025.6,025.3,000.0,033.6,027.5,08.9,0000.0,0010.45,0003.46,0002.93
2024-01-31 21:17:00,SystemResetWarning,0827.8,5.01,000.00,025.7,025.4,000.0,033.7,027.6,08.6,0000.0,0010.35,0003.43,0002.88
2024-01-31 21:18:00,SystemResetWarning,0827.9,4.99,000.00,025.7,025.4,000.0,033.7,027.6,08.7,0000.0,0010.37,0003.37,0002.81
2024-01-31 21:19:00,SystemResetWarning,0828.0,5.00,000.00,025.8,025.5,000.0,033.7,027.7,08.8,0000.0,0010.38,0003.33,0002.77
2024-01-31 21:20:00,SystemResetWarning,0827.9,4.99,000.00,025.8,025.6,000.0,033.8,027.8,08.7,0000.0,0010.11,0003.35,0002.78
2024-01-31 21:21:00,SystemResetWarning,0827.9,5.00,000.00,025.9,025.3,000.0,033.9,027.6,08.7,0000.0,0010.31,0003.34,0002.76
2024-01-31 21:22:00,SystemResetWarning,0827.8,5.00,000.00,025.6,023.2,000.0,033.9,026.5,08.8,0000.0,0010.00,0003.30,0002.76
2024-01-31 21:23:00,SystemResetWarning,0827.8,5.02,000.00,025.1,021.6,000.0,034.0,025.6,09.1,0000.0,0009.48,0003.26,0002.76
2024-01-31 21:24:00,SystemResetWarning,0827.8,5.01,000.00,024.8,021.8,000.0,033.9,025.5,09.3,0000.0,0009.52,0003.26,0002.74
2024-01-31 21:25:00,SystemResetWarning,0827.8,5.00,000.00,024.8,022.2,000.0,033.7,025.7,09.3,0000.0,0009.54,0003.27,0002.73
2024-01-31 21:26:00,SystemResetWarning,0827.8,5.00,000.00,024.8,022.6,000.0,033.5,026.1,09.3,0000.0,0009.30,0003.26,0002.71
2024-01-31 21:27:00,SystemResetWarning,0827.7,5.01,000.00,024.8,023.1,000.0,033.5,026.3,09.2,0000.0,0008.63,0003.27,0002.69
2024-01-31 21:28:00,SystemResetWarning,0827.7,4.99,000.00,024.9,023.4,000.0,033.4,026.5,09.2,0000.0,0007.96,0003.26,0002.69
2024-01-31 21:29:00,SystemResetWarning,0827.7,5.00,000.00,024.9,023.8,000.0,033.4,026.6,09.1,0000.0,0007.59,0003.26,0002.70
2024-01-31 21:30:00,SystemResetWarning,0827.7,5.00,000.00,025.0,024.0,000.0,033.4,026.7,08.7,0000.0,0008.21,0003.26,0002.66
2024-01-31 21:31:00,SystemResetWarning,0827.7,4.99,000.00,025.1,024.2,000.0,033.3,026.8,08.5,0000.0,0007.81,0003.20,0002.57
2024-01-31 21:32:00,SystemResetWarning,0827.7,5.00,000.00,025.1,024.4,000.0,033.4,026.9,08.5,0000.0,0008.03,0003.14,0002.49
2024-01-31 21:33:00,SystemResetWarning,0827.7,4.99,000.00,025.2,024.6,000.0,033.4,027.0,08.4,0000.0,0008.78,0003.15,0002.44
2024-01-31 21:34:00,SystemResetWarning,0827.7,5.00,000.00,025.3,024.8,000.0,033.4,027.1,08.3,0000.0,0008.76,0003.13,0002.40
2024-01-31 21:35:00,SystemResetWarning,0827.7,5.00,000.00,025.3,024.9,000.0,033.4,027.2,08.2,0000.0,0008.45,0003.07,0002.34
2024-01-31 21:36:00,SystemResetWarning,0827.7,5.00,000.00,025.4,025.0,000.0,033.4,027.3,08.2,0000.0,0009.66,0002.97,0002.28
2024-01-31 21:37:00,SystemResetWarning,0827.7,5.00,000.00,025.4,025.1,000.0,033.5,027.3,08.2,0000.0,0010.21,0002.84,0002.21
2024-01-31 21:38:00,SystemResetWarning,0827.7,5.00,000.00,025.5,025.2,000.0,033.5,027.4,08.3,0000.0,0010.50,0002.79,0002.15
2024-01-31 21:39:00,SystemResetWarning,0827.7,5.00,000.00,025.6,025.3,000.0,033.6,027.5,08.4,0000.0,0010.41,0002.69,0002.10
2024-01-31 21:40:00,SystemResetWarning,0827.7,5.00,000.00,025.6,025.3,000.0,033.6,027.5,08.6,0000.0,0010.62,0002.70,0002.08
2024-01-31 21:41:00,SystemResetWarning,0827.7,5.00,000.00,025.7,025.4,000.0,033.6,027.6,08.6,0000.0,0011.38,0002.75,0002.08
2024-01-31 21:42:00,SystemResetWarning,0827.7,5.00,000.00,025.7,025.5,000.0,033.7,027.7,08.5,0000.0,0011.13,0002.77,0002.10
2024-01-31 21:43:00,SystemResetWarning,0827.7,5.00,000.00,025.8,025.5,000.0,033.7,027.7,08.6,0000.0,0011.05,0002.78,0002.14
2024-01-31 21:44:00,SystemResetWarning,0827.7,5.00,000.00,025.8,025.2,000.0,033.8,027.5,08.4,0000.0,0011.18,0002.86,0002.17
2024-01-31 21:45:00,SystemResetWarning,0827.5,5.00,000.00,025.5,022.9,000.0,033.9,026.4,08.6,0000.0,0011.22,0002.89,0002.17
2024-01-31 21:46:00,SystemResetWarning,0827.6,5.01,000.00,025.0,021.4,000.0,033.9,025.5,08.7,0000.0,0011.30,0002.94,0002.19
2024-01-31 21:47:00,SystemResetWarning,0827.5,5.02,000.00,024.8,021.7,000.0,033.8,025.5,08.5,0000.0,0010.32,0003.01,0002.20
2024-01-31 21:48:00,SystemResetWarning,0827.5,5.00,000.00,024.7,022.1,000.0,033.6,025.7,08.6,0000.0,0009.75,0003.09,0002.21
2024-01-31 21:49:00,SystemResetWarning,0827.6,5.00,000.00,024.8,022.6,000.0,033.5,026.0,08.4,0000.0,0009.43,0003.10,0002.21
2024-01-31 21:50:00,SystemResetWarning,0827.5,5.00,000.00,024.8,023.1,000.0,033.4,026.3,08.4,0000.0,0010.04,0003.12,0002.21
2024-01-31 21:51:00,SystemResetWarning,0827.6,5.00,000.00,024.9,023.5,000.0,033.4,026.5,08.6,0000.0,0009.95,0003.11,0002.19
2024-01-31 21:52:00,SystemResetWarning,0827.5,5.00,000.00,024.9,023.8,000.0,033.3,026.6,08.8,0000.0,0009.20,0003.04,0002.14
2024-01-31 21:53:00,SystemResetWarning,0827.5,4.99,000.00,025.0,024.1,000.0,033.3,026.7,08.9,0000.0,0008.54,0002.98,0002.11
2024-01-31 21:54:00,SystemResetWarning,0827.5,5.00,000.00,025.0,024.3,000.0,033.3,026.8,09.1,0000.0,0008.49,0002.93,0002.10
2024-01-31 21:55:00,SystemResetWarning,0827.5,5.00,000.00,025.1,024.4,000.0,033.3,026.9,09.1,0000.0,0008.16,0002.93,0002.11
2024-01-31 21:56:00,SystemResetWarning,0827.5,5.00,000.00,025.2,024.6,000.0,033.3,027.0,09.1,0000.0,0007.46,0002.94,0002.15
2024-01-31 21:57:00,SystemResetWarning,0827.6,5.01,000.00,025.2,024.7,000.0,033.4,027.1,08.9,0000.0,0007.41,0002.93,0002.17
2024-01-31 21:58:00,SystemResetWarning,0827.6,5.00,000.00,025.3,024.9,000.0,033.4,027.2,09.0,0000.0,0007.73,0002.94,0002.21
2024-01-31 21:59:00,SystemResetWarning,0827.8,5.01,000.00,025.4,025.0,000.0,033.4,027.3,08.9,0000.0,0008.02,0002.95,0002.24
